This demonstration page uses our WeatherBlox Daily Observations layout. Learn more.

Left ArrowRight Arrow

39.01783, -85.05884

Hourly Observations for June 19, 2015

Temp ( °F °C ) Dew Point ( °F °C ) Humidity (%) Winds ( mph kmh ) Pressure ( in mb ) Visibility ( mi km ) Precip ( " mm )
12:52 am 00:52 Cloudy 70 21.1 68 20 93 93 SSW 3 6 30.04 1017 9 14 N/A
1:52 am 01:52 Cloudy with Light Rain 70 21.1 69 20.6 97 97 WSW 3 6 30.05 1018 7 11 0.03 0.76
2:52 am 02:52 Cloudy with Light Rain 70 21.1 65 18.3 84 84 SSW 8 13 30.02 1017 10 16 N/A
3:52 am 03:52 Cloudy 68 20 65 18.3 90 90 SW 5 7 30.00 1016 10 16 N/A
4:52 am 04:52 Cloudy 69 20.6 65 18.3 87 87 N N/A 29.98 1015 10 16 N/A
5:52 am 05:52 Cloudy 68 20 64 17.8 87 87 SSW 6 9 30.00 1016 10 16 N/A
6:52 am 06:52 Cloudy 68 20 64 17.8 87 87 S 5 7 30.02 1017 10 16 N/A
7:52 am 07:52 Cloudy 69 20.6 66 18.9 90 90 N N/A 30.03 1017 10 16 N/A
8:52 am 08:52 Cloudy 72 22.2 67 19.4 84 84 W 9 15 30.05 1018 10 16 N/A
9:52 am 09:52 Cloudy with Light Rain 71 21.7 68 20 90 90 ESE 6 9 30.04 1017 7 11 0.01 0.25
10:52 am 10:52 Cloudy 72 22.2 69 20.6 91 91 E 6 9 30.04 1017 10 16 N/A
11:34 am 11:34 Cloudy with Thunderstorms 72 22 68 20 88 88 NW 9 15 30.06 1018 4 6 N/A
11:52 am 11:52 Cloudy with Thunderstorms 70 21.1 68 20 93 93 W 5 7 30.07 1018 3 5 0.06 1.52
12:08 pm 12:08 Cloudy with Thunderstorms 70 21 68 20 94 94 W 10 17 30.09 1019 3 4 N/A
12:16 pm 12:16 Cloudy with Strong Thunderstorms 70 21 68 20 94 94 WNW 7 11 30.06 1018 2 3 0.11 2.79
12:30 pm 12:30 Cloudy with Rain 70 21 68 20 94 94 SE 3 6 30.06 1018 3 4 0.17 4.32
12:46 pm 12:46 Cloudy with Light Rain 70 21 68 20 94 94 ESE 7 11 30.06 1018 4 6 0.23 5.84
12:52 pm 12:52 Cloudy with Light Rain 70 21.1 68 20 93 93 ESE 6 9 30.04 1017 4 6 0.25 6.35
1:16 pm 13:16 Cloudy with Light Rain 72 22 68 20 88 88 E 8 13 30.00 1016 7 11 N/A
1:52 pm 13:52 Cloudy 72 22.2 69 20.6 91 91 ESE 5 7 30.00 1016 10 16 0.04 1.02
2:52 pm 14:52 Cloudy 76 24.4 69 20.6 79 79 N N/A 29.98 1015 10 16 N/A
3:06 pm 15:06 Cloudy 75 24 70 21 83 83 ENE 6 9 29.97 1015 10 16 N/A
3:52 pm 15:52 Cloudy 75 23.9 69 20.6 82 82 ENE 12 19 29.96 1015 10 16 N/A
4:52 pm 16:52 Cloudy 76 24.4 67 19.4 74 74 E 8 13 29.96 1015 10 16 N/A
5:52 pm 17:52 Cloudy 76 24.4 67 19.4 74 74 ESE 7 11 29.97 1015 10 16 N/A
6:43 pm 18:43 Cloudy 75 24 66 19 74 74 E 9 15 29.94 1014 10 16 N/A
6:52 pm 18:52 Cloudy 76 24.4 66 18.9 72 72 E 10 17 29.95 1014 10 16 N/A
7:52 pm 19:52 Cloudy 75 23.9 67 19.4 76 76 ESE 7 11 29.95 1014 10 16 N/A
8:52 pm 20:52 Cloudy 75 23.9 67 19.4 76 76 ESE 10 17 29.94 1014 10 16 N/A
9:52 pm 21:52 Cloudy with Light Rain 73 22.8 68 20 84 84 E 6 9 29.93 1014 10 16 N/A
10:52 pm 22:52 Cloudy 72 22.2 68 20 87 87 ESE 7 11 29.92 1013 10 16 N/A
11:52 pm 23:52 Cloudy 72 22.2 68 20 87 87 ESE 7 11 29.92 1013 10 16 N/A

Powered by AerisWeather